TimePST,TemperatureF,Dew PointF,Humidity,Sea Level PressureIn,VisibilityMPH,Wind Direction,Wind SpeedMPH,Gust SpeedMPH,PrecipitationIn,Events,Conditions,WindDirDegrees,DateUTC
12:15 AM,32.5,24.3,72,29.94,10.0,South,12.7,-,N/A,,Clear,190,2013-03-07 08:15:00
12:35 AM,33.1,23.9,69,29.95,10.0,South,17.3,21.9,N/A,,Clear,180,2013-03-07 08:35:00
12:55 AM,32.9,23.9,69,29.95,10.0,SSW,12.7,21.9,N/A,,Scattered Clouds,200,2013-03-07 08:55:00
1:15 AM,32.4,23.0,68,29.96,10.0,South,11.5,-,N/A,,Clear,190,2013-03-07 09:15:00
1:35 AM,32.0,22.8,69,29.96,10.0,South,12.7,-,N/A,,Clear,190,2013-03-07 09:35:00
1:55 AM,32.0,22.5,68,29.96,10.0,SSW,8.1,-,N/A,,Clear,200,2013-03-07 09:55:00
2:15 AM,31.8,22.3,68,29.97,10.0,SSE,11.5,-,N/A,,Clear,160,2013-03-07 10:15:00
2:35 AM,29.3,23.0,77,29.97,10.0,East,3.5,-,N/A,,Scattered Clouds,100,2013-03-07 10:35:00
2:55 AM,28.9,23.2,79,29.97,10.0,East,10.4,-,N/A,,Scattered Clouds,100,2013-03-07 10:55:00
3:15 AM,29.8,22.8,75,29.96,10.0,East,8.1,-,N/A,,Scattered Clouds,90,2013-03-07 11:15:00
3:35 AM,27.7,22.5,81,29.97,10.0,SE,9.2,-,N/A,,Clear,130,2013-03-07 11:35:00
3:55 AM,26.4,21.9,83,29.97,10.0,ESE,4.6,-,N/A,,Clear,110,2013-03-07 11:55:00
4:15 AM,28.6,22.5,78,29.97,10.0,SSE,13.8,-,N/A,,Clear,150,2013-03-07 12:15:00
4:35 AM,29.1,22.3,76,29.97,10.0,SSE,9.2,-,N/A,,Clear,150,2013-03-07 12:35:00
4:55 AM,27.9,21.9,78,29.97,10.0,ESE,6.9,12.7,N/A,,Clear,120,2013-03-07 12:55:00
5:15 AM,24.8,21.0,86,29.98,10.0,ESE,6.9,-,N/A,,Clear,110,2013-03-07 13:15:00
5:35 AM,24.4,20.8,86,29.98,10.0,ENE,9.2,-,N/A,,Clear,70,2013-03-07 13:35:00
5:55 AM,25.5,21.4,84,29.99,10.0,SE,9.2,-,N/A,,Scattered Clouds,130,2013-03-07 13:55:00
6:15 AM,25.5,21.2,84,29.99,10.0,ESE,6.9,-,N/A,,Scattered Clouds,120,2013-03-07 14:15:00
6:35 AM,24.1,19.9,84,30.00,10.0,ESE,6.9,-,N/A,,Clear,110,2013-03-07 14:35:00
6:55 AM,25.7,21.6,84,30.00,10.0,East,8.1,-,N/A,,Clear,100,2013-03-07 14:55:00
7:15 AM,27.0,22.3,83,30.01,10.0,ESE,6.9,-,N/A,,Clear,110,2013-03-07 15:15:00
7:35 AM,28.4,23.0,80,30.01,10.0,East,8.1,-,N/A,,Clear,100,2013-03-07 15:35:00
7:55 AM,28.6,23.0,80,30.01,10.0,East,6.9,-,N/A,,Clear,100,2013-03-07 15:55:00
8:15 AM,29.7,23.0,76,30.01,10.0,East,5.8,-,N/A,,Clear,80,2013-03-07 16:15:00
8:35 AM,30.9,24.4,77,30.01,10.0,East,6.9,-,N/A,,Clear,80,2013-03-07 16:35:00
8:55 AM,31.3,24.8,77,30.01,10.0,East,8.1,-,N/A,,Clear,90,2013-03-07 16:55:00
9:15 AM,32.0,25.7,78,30.01,10.0,East,5.8,-,N/A,,Clear,90,2013-03-07 17:15:00
9:35 AM,34.0,26.2,73,30.00,10.0,East,5.8,-,N/A,,Clear,80,2013-03-07 17:35:00
9:55 AM,35.6,26.4,69,30.00,10.0,ENE,6.9,-,N/A,,Clear,70,2013-03-07 17:55:00
10:15 AM,36.7,27.5,69,30.00,10.0,ENE,5.8,-,N/A,,Clear,60,2013-03-07 18:15:00
10:35 AM,37.8,27.7,67,30.00,10.0,East,4.6,-,N/A,,Clear,80,2013-03-07 18:35:00
10:55 AM,38.8,27.1,63,30.00,10.0,NE,6.9,-,N/A,,Clear,50,2013-03-07 18:55:00
11:15 AM,40.1,25.3,56,30.00,10.0,East,5.8,-,N/A,,Clear,80,2013-03-07 19:15:00
11:35 AM,41.5,25.2,52,30.00,10.0,NE,6.9,-,N/A,,Clear,40,2013-03-07 19:35:00
11:55 AM,42.1,24.1,49,30.00,10.0,East,5.8,-,N/A,,Clear,90,2013-03-07 19:55:00
12:15 PM,41.5,23.9,50,29.99,10.0,East,4.6,-,N/A,,Mostly Cloudy,90,2013-03-07 20:15:00
12:35 PM,41.7,23.0,47,29.98,10.0,ENE,3.5,-,N/A,,Overcast,70,2013-03-07 20:35:00
12:55 PM,42.8,23.2,46,29.97,10.0,NNE,3.5,-,N/A,,Mostly Cloudy,20,2013-03-07 20:55:00
1:15 PM,43.0,22.6,45,29.96,10.0,NNW,4.6,-,N/A,,Mostly Cloudy,340,2013-03-07 21:15:00
1:35 PM,44.1,23.0,43,29.95,10.0,NW,4.6,-,N/A,,Scattered Clouds,320,2013-03-07 21:35:00
1:55 PM,44.1,21.0,40,29.95,10.0,NNW,4.6,-,N/A,,Scattered Clouds,340,2013-03-07 21:55:00
2:15 PM,45.3,22.6,41,29.94,10.0,Calm,Calm,-,N/A,,Scattered Clouds,0,2013-03-07 22:15:00
2:35 PM,44.8,21.6,40,29.94,10.0,East,5.8,-,N/A,,Mostly Cloudy,90,2013-03-07 22:35:00
2:55 PM,45.0,20.5,38,29.94,10.0,ENE,4.6,-,N/A,,Overcast,60,2013-03-07 22:55:00
3:15 PM,44.8,20.7,38,29.94,10.0,NE,5.8,-,N/A,,Overcast,40,2013-03-07 23:15:00
3:35 PM,44.8,19.4,36,29.94,10.0,ENE,4.6,-,N/A,,Mostly Cloudy,60,2013-03-07 23:35:00
3:55 PM,44.4,18.0,35,29.93,10.0,ENE,4.6,-,N/A,,Overcast,60,2013-03-07 23:55:00
5:35 PM,41.4,24.8,52,29.94,10.0,ENE,4.6,-,N/A,,Scattered Clouds,60,2013-03-08 01:35:00
5:55 PM,40.3,24.8,54,29.94,10.0,Calm,Calm,-,N/A,,Mostly Cloudy,0,2013-03-08 01:55:00
6:15 PM,38.5,25.5,60,29.94,10.0,NE,3.5,-,N/A,,Mostly Cloudy,50,2013-03-08 02:15:00
6:35 PM,38.3,25.7,61,29.94,10.0,NE,4.6,-,N/A,,Overcast,40,2013-03-08 02:35:00
6:55 PM,38.7,26.1,61,29.95,10.0,NE,4.6,-,N/A,,Overcast,50,2013-03-08 02:55:00
7:15 PM,39.2,25.3,58,29.95,10.0,SSE,3.5,-,N/A,,Overcast,160,2013-03-08 03:15:00
7:35 PM,38.7,25.2,58,29.96,10.0,WNW,3.5,-,N/A,,Overcast,290,2013-03-08 03:35:00
7:55 PM,37.8,24.6,59,29.96,10.0,NW,4.6,-,N/A,,Overcast,310,2013-03-08 03:55:00
8:15 PM,39.4,22.8,52,29.96,10.0,Calm,Calm,-,N/A,,Overcast,0,2013-03-08 04:15:00
8:35 PM,36.3,23.9,61,29.96,10.0,East,4.6,-,N/A,,Mostly Cloudy,90,2013-03-08 04:35:00
8:55 PM,35.2,24.1,64,29.96,10.0,ESE,6.9,-,N/A,,Clear,120,2013-03-08 04:55:00
9:15 PM,34.7,22.8,62,29.96,10.0,East,4.6,-,N/A,,Clear,100,2013-03-08 05:15:00
9:35 PM,33.8,23.5,66,29.96,10.0,SE,4.6,-,N/A,,Scattered Clouds,130,2013-03-08 05:35:00
9:55 PM,33.6,23.7,67,29.96,10.0,SE,5.8,-,N/A,,Clear,130,2013-03-08 05:55:00
10:15 PM,32.9,23.9,69,29.95,10.0,ESE,8.1,-,N/A,,Clear,110,2013-03-08 06:15:00
10:35 PM,32.0,23.7,71,29.96,10.0,ESE,6.9,-,N/A,,Clear,110,2013-03-08 06:35:00
10:55 PM,31.5,23.5,73,29.96,10.0,ESE,5.8,-,N/A,,Clear,110,2013-03-08 06:55:00
11:15 PM,32.0,23.0,69,29.95,10.0,East,6.9,-,N/A,,Clear,100,2013-03-08 07:15:00
11:35 PM,30.2,23.4,76,29.95,10.0,East,5.8,-,N/A,,Clear,100,2013-03-08 07:35:00
11:55 PM,29.7,23.0,76,29.95,10.0,ESE,6.9,-,N/A,,Clear,110,2013-03-08 07:55:00